DLH23F EDDF-EHAM

Flight info

Callsign DLH23F
Flight time 0h 49m
Altitude 30000
Route MARUN8M/25C MARUN Y152 ARPEG Z850 ABILU DCT NORKU
Aircraft A321/M-SDE3FGHIRWY/LB1

Departure

Time 2026-05-05 18:08
Airport Frankfurt Main Airport (EDDF)

Arrival

Time 2026-05-05 18:57
Airport Amsterdam Airport Schiphol (EHAM)
Time Latitude Longitude Altitude Speed Heading
2026-05-05 17:34 50.04766 8.58238 375 ft 0 kts 160°
2026-05-05 17:58 50.04770 8.58235 375 ft 2 kts 160°
2026-05-05 17:58 50.04784 8.58227 375 ft 1 kts 160°
2026-05-05 17:58 50.04793 8.58222 376 ft 2 kts 153°
2026-05-05 17:58 50.04804 8.58206 376 ft 2 kts 121°
2026-05-05 17:59 50.04809 8.58184 376 ft 2 kts 94°
2026-05-05 17:59 50.04808 8.58165 376 ft 0 kts 72°
2026-05-05 17:59 50.04806 8.58155 376 ft 1 kts 69°
2026-05-05 17:59 50.04805 8.58154 376 ft 0 kts 69°
2026-05-05 18:02 50.04812 8.58181 376 ft 4 kts 69°
2026-05-05 18:02 50.04825 8.58235 376 ft 5 kts 70°
2026-05-05 18:02 50.04841 8.58301 376 ft 8 kts 70°
2026-05-05 18:03 50.04867 8.58414 375 ft 13 kts 70°
2026-05-05 18:03 50.04901 8.58557 374 ft 14 kts 69°
2026-05-05 18:03 50.04884 8.58684 372 ft 13 kts 147°
2026-05-05 18:03 50.04870 8.58695 372 ft 0 kts 159°
2026-05-05 18:06 50.04865 8.58698 372 ft 4 kts 159°
2026-05-05 18:06 50.04824 8.58722 370 ft 13 kts 160°
2026-05-05 18:06 50.04705 8.58770 369 ft 11 kts 183°
2026-05-05 18:06 50.04611 8.58742 368 ft 17 kts 206°
2026-05-05 18:07 50.04507 8.58616 369 ft 17 kts 226°
2026-05-05 18:07 50.04474 8.58532 370 ft 0 kts 249°
2026-05-05 18:07 50.04474 8.58531 370 ft 1 kts 249°
2026-05-05 18:07 50.04444 8.58409 371 ft 34 kts 251°
2026-05-05 18:08 50.04277 8.57709 368 ft 103 kts 250°
2026-05-05 18:08 50.03954 8.56356 353 ft 162 kts 250°
2026-05-05 18:08 50.03564 8.54662 695 ft 178 kts 250°
2026-05-05 18:08 50.03151 8.53016 1329 ft 178 kts 250°
2026-05-05 18:09 50.02740 8.51334 2044 ft 174 kts 250°
2026-05-05 18:09 50.02127 8.49764 2351 ft 185 kts 220°
2026-05-05 18:09 50.00929 8.49087 2591 ft 199 kts 192°
2026-05-05 18:09 49.99534 8.48695 2915 ft 208 kts 195°
2026-05-05 18:10 49.98076 8.48064 3329 ft 216 kts 199°
2026-05-05 18:10 49.96558 8.47334 3671 ft 230 kts 200°
2026-05-05 18:10 49.94971 8.46575 4211 ft 237 kts 200°
2026-05-05 18:10 49.93357 8.45808 4809 ft 241 kts 201°
2026-05-05 18:11 49.91872 8.44449 5479 ft 240 kts 230°
2026-05-05 18:11 49.91071 8.42108 6203 ft 240 kts 257°
2026-05-05 18:11 49.91075 8.39491 6668 ft 243 kts 280°
2026-05-05 18:11 49.91752 8.37052 6803 ft 249 kts 305°
2026-05-05 18:12 49.93151 8.35242 6864 ft 263 kts 332°
2026-05-05 18:12 49.94912 8.34095 7236 ft 280 kts 334°
2026-05-05 18:12 49.96739 8.32945 7931 ft 284 kts 334°
2026-05-05 18:12 49.98551 8.31787 8669 ft 286 kts 334°
2026-05-05 18:13 50.00408 8.30579 9402 ft 289 kts 333°
2026-05-05 18:13 50.02267 8.29363 10123 ft 291 kts 333°
2026-05-05 18:13 50.04268 8.28382 10517 ft 309 kts 349°
2026-05-05 18:13 50.06554 8.28547 10836 ft 331 kts 11°
2026-05-05 18:14 50.08837 8.29672 11138 ft 348 kts 17°
2026-05-05 18:14 50.11232 8.30987 11431 ft 364 kts 18°
2026-05-05 18:14 50.13762 8.32374 11875 ft 374 kts 17°
2026-05-05 18:14 50.16288 8.33734 12530 ft 377 kts 18°
2026-05-05 18:15 50.18896 8.35118 13185 ft 380 kts 18°
2026-05-05 18:15 50.21492 8.36490 13814 ft 384 kts 18°
2026-05-05 18:15 50.24122 8.37876 14443 ft 387 kts 18°
2026-05-05 18:15 50.26713 8.39239 14990 ft 391 kts 18°
2026-05-05 18:16 50.29375 8.40643 15573 ft 395 kts 18°
2026-05-05 18:16 50.32095 8.42111 16149 ft 398 kts 19°
2026-05-05 18:16 50.34787 8.43580 16714 ft 400 kts 20°
2026-05-05 18:16 50.37541 8.45091 17229 ft 404 kts 19°
2026-05-05 18:17 50.40223 8.46557 17768 ft 407 kts 20°
2026-05-05 18:17 50.42943 8.48048 18313 ft 408 kts 20°
2026-05-05 18:17 50.45650 8.49531 18822 ft 411 kts 20°
2026-05-05 18:17 50.48450 8.50996 19337 ft 414 kts 18°
2026-05-05 18:18 50.51187 8.52323 19799 ft 417 kts 17°
2026-05-05 18:18 50.54009 8.53664 20261 ft 420 kts 18°
2026-05-05 18:18 50.56861 8.54903 20725 ft 424 kts 12°
2026-05-05 18:18 50.59826 8.54880 21075 ft 429 kts 348°
2026-05-05 18:19 50.62669 8.53429 21571 ft 430 kts 338°
2026-05-05 18:19 50.65419 8.51599 21991 ft 434 kts 336°
2026-05-05 18:19 50.68218 8.49792 22319 ft 438 kts 338°
2026-05-05 18:19 50.71148 8.48001 22702 ft 440 kts 340°
2026-05-05 18:20 50.74159 8.46237 23139 ft 442 kts 340°
2026-05-05 18:20 50.77138 8.44539 23523 ft 445 kts 340°
2026-05-05 18:20 50.80061 8.42896 23783 ft 448 kts 340°
2026-05-05 18:20 50.83052 8.41224 23785 ft 447 kts 340°
2026-05-05 18:21 50.86154 8.39490 23789 ft 448 kts 340°
2026-05-05 18:21 50.89310 8.37725 23788 ft 448 kts 340°
2026-05-05 18:21 50.92406 8.35990 23784 ft 448 kts 340°
2026-05-05 18:21 50.95506 8.34250 23786 ft 448 kts 340°
2026-05-05 18:22 50.98636 8.32480 23782 ft 449 kts 339°
2026-05-05 18:22 51.01647 8.30482 23778 ft 448 kts 335°
2026-05-05 18:22 51.04621 8.28106 23779 ft 448 kts 331°
2026-05-05 18:22 51.07500 8.25545 23777 ft 448 kts 329°
2026-05-05 18:23 51.10245 8.23051 23775 ft 449 kts 329°
2026-05-05 18:23 51.13133 8.20452 23772 ft 449 kts 330°
2026-05-05 18:23 51.15999 8.17887 23774 ft 449 kts 330°
2026-05-05 18:23 51.18805 8.15380 23779 ft 448 kts 330°
2026-05-05 18:24 51.21638 8.12847 23784 ft 448 kts 329°
2026-05-05 18:24 51.24532 8.10255 23782 ft 448 kts 329°
2026-05-05 18:24 51.27379 8.07699 23785 ft 447 kts 330°
2026-05-05 18:24 51.30175 8.05187 23787 ft 448 kts 330°
2026-05-05 18:25 51.33028 8.02618 23784 ft 447 kts 330°
2026-05-05 18:25 51.34887 8.00942 23783 ft 447 kts 330°
2026-05-05 18:25 51.38659 7.97535 23785 ft 448 kts 329°
2026-05-05 18:25 51.41419 7.94810 23791 ft 447 kts 325°
2026-05-05 18:26 51.44115 7.91794 23796 ft 446 kts 323°
2026-05-05 18:26 51.46723 7.88710 23798 ft 446 kts 322°
2026-05-05 18:26 51.49334 7.85580 23799 ft 446 kts 322°
2026-05-05 18:26 51.51928 7.82469 23804 ft 446 kts 322°
2026-05-05 18:27 51.54451 7.79443 23805 ft 446 kts 322°
2026-05-05 18:27 51.57083 7.76286 23808 ft 446 kts 322°
2026-05-05 18:27 51.59719 7.73124 23810 ft 446 kts 322°
2026-05-05 18:27 51.62355 7.69960 23815 ft 445 kts 322°
2026-05-05 18:28 51.67690 7.63547 23821 ft 445 kts 322°
2026-05-05 18:28 51.70353 7.60336 23824 ft 444 kts 322°
2026-05-05 18:28 51.72982 7.57163 23824 ft 445 kts 322°
2026-05-05 18:29 51.75660 7.53925 23824 ft 445 kts 322°
2026-05-05 18:29 51.78278 7.50756 23825 ft 445 kts 322°
2026-05-05 18:29 51.80904 7.47570 23825 ft 444 kts 322°
2026-05-05 18:29 51.83560 7.44346 23829 ft 444 kts 322°
2026-05-05 18:30 51.86144 7.41204 23837 ft 443 kts 322°
2026-05-05 18:30 51.88719 7.38069 23836 ft 444 kts 321°
2026-05-05 18:30 51.91322 7.34892 23838 ft 444 kts 321°
2026-05-05 18:30 51.93912 7.31729 23842 ft 443 kts 321°
2026-05-05 18:31 51.96444 7.28632 23841 ft 443 kts 321°
2026-05-05 18:31 51.99027 7.25465 23844 ft 442 kts 321°
2026-05-05 18:31 52.01563 7.22352 23845 ft 442 kts 321°
2026-05-05 18:31 52.04108 7.19224 23845 ft 443 kts 321°
2026-05-05 18:32 52.06586 7.16174 23852 ft 443 kts 321°
2026-05-05 18:32 52.08926 7.13288 23856 ft 443 kts 321°
2026-05-05 18:32 52.11272 7.10393 23863 ft 441 kts 321°
2026-05-05 18:32 52.13640 7.07464 23860 ft 440 kts 321°
2026-05-05 18:33 52.15983 7.04563 23855 ft 440 kts 321°
2026-05-05 18:33 52.18293 7.01695 23867 ft 440 kts 320°
2026-05-05 18:33 52.20533 6.98645 23859 ft 439 kts 316°
2026-05-05 18:33 52.22655 6.95283 23857 ft 437 kts 311°
2026-05-05 18:34 52.24536 6.91818 23861 ft 436 kts 308°
2026-05-05 18:34 52.26486 6.87936 23855 ft 436 kts 307°
2026-05-05 18:34 52.28305 6.84244 23861 ft 436 kts 307°
2026-05-05 18:34 52.30195 6.80411 23686 ft 435 kts 307°
2026-05-05 18:35 52.31925 6.76360 23217 ft 429 kts 294°
2026-05-05 18:35 52.32935 6.71589 22617 ft 422 kts 283°
2026-05-05 18:35 52.33657 6.66659 21914 ft 421 kts 281°
2026-05-05 18:35 52.34351 6.61749 21286 ft 419 kts 282°
2026-05-05 18:36 52.35045 6.57080 20758 ft 415 kts 283°
2026-05-05 18:36 52.35779 6.52360 20210 ft 412 kts 283°
2026-05-05 18:36 52.36518 6.47731 19657 ft 409 kts 284°
2026-05-05 18:36 52.37288 6.42988 19077 ft 407 kts 284°
2026-05-05 18:37 52.38044 6.38364 18513 ft 405 kts 284°
2026-05-05 18:37 52.38795 6.33781 17963 ft 402 kts 284°
2026-05-05 18:37 52.39513 6.29397 17433 ft 400 kts 284°
2026-05-05 18:37 52.40218 6.25084 16903 ft 398 kts 284°
2026-05-05 18:38 52.40934 6.20703 16337 ft 396 kts 284°
2026-05-05 18:38 52.41589 6.16680 15837 ft 394 kts 285°
2026-05-05 18:38 52.42302 6.12291 15296 ft 391 kts 285°
2026-05-05 18:38 52.43021 6.07867 14755 ft 388 kts 285°
2026-05-05 18:39 52.43744 6.03406 14204 ft 385 kts 285°
2026-05-05 18:39 52.44403 5.99329 13704 ft 382 kts 286°
2026-05-05 18:39 52.45077 5.95166 13192 ft 379 kts 286°
2026-05-05 18:39 52.45750 5.90978 12660 ft 376 kts 286°
2026-05-05 18:40 52.46420 5.86781 12113 ft 372 kts 286°
2026-05-05 18:40 52.47098 5.82517 11569 ft 370 kts 285°
2026-05-05 18:40 52.47731 5.78530 11036 ft 367 kts 285°
2026-05-05 18:40 52.48371 5.74483 10469 ft 364 kts 285°
2026-05-05 18:41 52.49010 5.70423 9957 ft 362 kts 285°
2026-05-05 18:41 52.49661 5.66273 9406 ft 359 kts 285°
2026-05-05 18:41 52.50287 5.62281 8842 ft 357 kts 285°
2026-05-05 18:41 52.50851 5.58294 8299 ft 356 kts 279°
2026-05-05 18:42 52.50623 5.54220 7747 ft 356 kts 253°
2026-05-05 18:42 52.49375 5.50456 7201 ft 355 kts 237°
2026-05-05 18:42 52.47892 5.47018 6907 ft 345 kts 236°
2026-05-05 18:42 52.46528 5.43803 6893 ft 328 kts 237°
2026-05-05 18:43 52.45348 5.40885 6893 ft 310 kts 238°
2026-05-05 18:43 52.44323 5.38256 6887 ft 290 kts 239°
2026-05-05 18:43 52.43356 5.35721 6832 ft 283 kts 239°
2026-05-05 18:43 52.42338 5.33006 6707 ft 281 kts 239°
2026-05-05 18:44 52.41311 5.30250 6580 ft 281 kts 239°
2026-05-05 18:44 52.40288 5.27499 6466 ft 280 kts 239°
2026-05-05 18:44 52.39320 5.24890 6357 ft 280 kts 239°
2026-05-05 18:44 52.38419 5.22467 6248 ft 280 kts 239°
2026-05-05 18:45 52.37512 5.20028 6126 ft 280 kts 239°
2026-05-05 18:45 52.36534 5.17401 6021 ft 280 kts 239°
2026-05-05 18:45 52.35600 5.14891 5897 ft 280 kts 239°
2026-05-05 18:45 52.34664 5.12376 5779 ft 280 kts 239°
2026-05-05 18:46 52.33823 5.09844 5661 ft 279 kts 246°
2026-05-05 18:46 52.32954 5.07178 5532 ft 280 kts 240°
2026-05-05 18:46 52.32050 5.04826 5362 ft 277 kts 238°
2026-05-05 18:46 52.31003 5.02194 4999 ft 278 kts 238°
2026-05-05 18:47 52.30012 4.99723 4672 ft 278 kts 238°
2026-05-05 18:47 52.29037 4.97304 4361 ft 278 kts 238°
2026-05-05 18:47 52.28053 4.94874 4048 ft 277 kts 238°
2026-05-05 18:47 52.27060 4.92427 3996 ft 277 kts 238°
2026-05-05 18:48 52.26047 4.89935 4031 ft 273 kts 238°
2026-05-05 18:48 52.25110 4.87635 4045 ft 261 kts 238°
2026-05-05 18:48 52.24190 4.85382 4058 ft 258 kts 238°
2026-05-05 18:48 52.23290 4.83177 4063 ft 258 kts 238°
2026-05-05 18:49 52.22311 4.80776 4066 ft 258 kts 238°
2026-05-05 18:49 52.21392 4.78518 4066 ft 258 kts 238°
2026-05-05 18:49 52.20503 4.76334 4066 ft 258 kts 238°
2026-05-05 18:49 52.19609 4.74142 4064 ft 257 kts 238°
2026-05-05 18:50 52.18720 4.71968 3882 ft 254 kts 238°
2026-05-05 18:50 52.17838 4.69815 3565 ft 256 kts 238°
2026-05-05 18:50 52.16965 4.67694 3281 ft 257 kts 238°
2026-05-05 18:50 52.16009 4.65377 2998 ft 256 kts 238°
2026-05-05 18:51 52.15126 4.63167 2730 ft 255 kts 245°
2026-05-05 18:51 52.14706 4.60736 2560 ft 243 kts 275°
2026-05-05 18:51 52.15031 4.58359 2397 ft 228 kts 305°
2026-05-05 18:51 52.16040 4.56541 2230 ft 213 kts 328°
2026-05-05 18:52 52.17248 4.55154 2087 ft 206 kts 332°
2026-05-05 18:52 52.18456 4.53860 1993 ft 197 kts 333°
2026-05-05 18:52 52.19553 4.52738 2060 ft 177 kts 340°
2026-05-05 18:52 52.20694 4.52550 1998 ft 162 kts 20°
2026-05-05 18:53 52.21472 4.53536 1993 ft 162 kts 53°
2026-05-05 18:53 52.21954 4.55002 2005 ft 164 kts 61°
2026-05-05 18:53 52.22413 4.56521 1996 ft 163 kts 59°
2026-05-05 18:53 52.22906 4.57978 1993 ft 163 kts 57°
2026-05-05 18:54 52.23394 4.59313 1996 ft 148 kts 56°
2026-05-05 18:54 52.23867 4.60561 1893 ft 143 kts 55°
2026-05-05 18:54 52.24407 4.61971 1691 ft 142 kts 54°
2026-05-05 18:54 52.24876 4.63194 1516 ft 141 kts 55°
2026-05-05 18:55 52.25338 4.64401 1343 ft 141 kts 54°
2026-05-05 18:55 52.25795 4.65595 1178 ft 141 kts 54°
2026-05-05 18:55 52.26242 4.66760 1023 ft 140 kts 56°
2026-05-05 18:55 52.26708 4.67978 850 ft 140 kts 55°
2026-05-05 18:56 52.27164 4.69170 681 ft 140 kts 54°
2026-05-05 18:56 52.27638 4.70418 499 ft 139 kts 55°
2026-05-05 18:56 52.28095 4.71609 364 ft 139 kts 54°
2026-05-05 18:56 52.28548 4.72785 192 ft 137 kts 56°
2026-05-05 18:57 52.28993 4.73969 38 ft 136 kts 54°
2026-05-05 18:57 52.29436 4.75098 0 ft 124 kts 53°
2026-05-05 18:57 52.29799 4.76026 0 ft 86 kts 58°
2026-05-05 18:57 52.30029 4.76531 0 ft 38 kts 34°
2026-05-05 18:58 52.30139 4.76636 0 ft 15 kts 28°
2026-05-05 18:58 52.30181 4.76672 0 ft 0 kts 28°
2026-05-05 18:59 52.30186 4.76676 0 ft 3 kts 28°
2026-05-05 18:59 52.30223 4.76708 0 ft 9 kts 27°
2026-05-05 19:00 52.30295 4.76741 0 ft 12 kts 354°
2026-05-05 19:00 52.30341 4.76655 0 ft 11 kts 256°
2026-05-05 19:00 52.30347 4.76532 0 ft 12 kts 313°
2026-05-05 19:00 52.30418 4.76455 0 ft 12 kts 329°
2026-05-05 19:01 52.30483 4.76391 0 ft 7 kts 329°
2026-05-05 19:01 52.30518 4.76356 0 ft 4 kts 326°
2026-05-05 19:01 52.30527 4.76310 0 ft 5 kts 257°
2026-05-05 19:01 52.30514 4.76265 0 ft 2 kts 238°
2026-05-05 19:02 52.30513 4.76263 0 ft 0 kts 238°